TimeCST,TemperatureF,Dew PointF,Humidity,Sea Level PressureIn,VisibilityMPH,Wind Direction,Wind SpeedMPH,Gust SpeedMPH,PrecipitationIn,Events,Conditions,WindDirDegrees,DateUTC
12:15 AM,42.1,36.9,82,30.37,10.0,Calm,Calm,-,N/A,,Overcast,0,2013-01-05 06:15:00
12:35 AM,41.9,37.6,85,30.36,10.0,Calm,Calm,-,N/A,Rain,Light Rain,0,2013-01-05 06:35:00
12:55 AM,41.4,37.8,87,30.36,10.0,Calm,Calm,-,N/A,,Overcast,0,2013-01-05 06:55:00
1:15 AM,41.9,38.1,86,30.35,10.0,Calm,Calm,-,N/A,,Overcast,0,2013-01-05 07:15:00
1:55 AM,42.8,37.8,82,30.39,10.0,West,3.5,-,N/A,Rain,Light Rain,260,2013-01-05 07:55:00
2:15 AM,41.9,38.7,88,30.38,10.0,Calm,Calm,-,N/A,Rain,Light Rain,0,2013-01-05 08:15:00
2:35 AM,41.9,38.8,89,30.38,10.0,Calm,Calm,-,0.01,Rain,Light Rain,0,2013-01-05 08:35:00
2:55 AM,41.5,39.4,92,30.38,10.0,Calm,Calm,-,0.01,,Light Drizzle,0,2013-01-05 08:55:00
3:15 AM,41.9,39.6,91,30.40,10.0,Calm,Calm,-,N/A,,Light Drizzle,0,2013-01-05 09:15:00
3:35 AM,41.9,39.4,91,30.40,10.0,Calm,Calm,-,N/A,Rain,Light Rain,0,2013-01-05 09:35:00
3:55 AM,41.9,39.2,90,30.41,10.0,SW,3.5,-,N/A,,Light Drizzle,230,2013-01-05 09:55:00
4:15 AM,41.5,38.8,90,30.40,7.0,Calm,Calm,-,0.02,Rain,Light Rain,0,2013-01-05 10:15:00
4:35 AM,41.5,39.2,91,30.40,7.0,Calm,Calm,-,0.03,Rain,Light Rain,0,2013-01-05 10:35:00
4:55 AM,41.4,39.4,93,30.40,5.0,Calm,Calm,-,0.04,Rain,Rain,0,2013-01-05 10:55:00
5:15 AM,41.4,39.4,93,30.40,5.0,Calm,Calm,-,0.01,Rain,Light Rain,0,2013-01-05 11:15:00
5:35 AM,41.4,39.6,93,30.40,5.0,SSW,3.5,-,0.02,,Light Drizzle,200,2013-01-05 11:35:00
5:55 AM,41.4,39.4,93,30.40,5.0,Calm,Calm,-,0.02,Rain,Light Rain,0,2013-01-05 11:55:00
7:15 AM,41.4,39.4,93,30.40,7.0,Calm,Calm,-,N/A,Rain,Light Rain,0,2013-01-05 13:15:00
7:35 AM,41.4,39.4,93,30.39,4.0,Calm,Calm,-,N/A,,Overcast,0,2013-01-05 13:35:00
7:55 AM,41.9,39.7,92,30.38,4.0,ENE,3.5,-,N/A,,Overcast,60,2013-01-05 13:55:00
8:35 AM,41.9,39.2,90,30.38,10.0,ESE,3.5,-,N/A,,Overcast,110,2013-01-05 14:35:00
8:55 AM,42.1,39.4,90,30.37,10.0,East,3.5,-,N/A,,Overcast,90,2013-01-05 14:55:00
9:15 AM,42.4,39.4,89,30.37,10.0,ESE,6.9,-,N/A,,Overcast,120,2013-01-05 15:15:00
9:35 AM,42.8,39.4,88,30.37,10.0,ESE,8.1,-,N/A,,Overcast,120,2013-01-05 15:35:00
9:55 AM,42.8,39.4,88,30.39,10.0,SE,3.5,-,N/A,,Overcast,130,2013-01-05 15:55:00
10:15 AM,43.3,39.7,87,30.38,10.0,ESE,5.8,-,N/A,,Overcast,120,2013-01-05 16:15:00
10:35 AM,43.3,39.6,87,30.39,10.0,SE,4.6,-,N/A,,Overcast,140,2013-01-05 16:35:00
10:55 AM,43.2,39.4,86,30.40,10.0,Calm,Calm,-,N/A,,Overcast,0,2013-01-05 16:55:00
11:15 AM,43.5,39.6,86,30.39,10.0,South,3.5,-,N/A,,Overcast,190,2013-01-05 17:15:00
11:35 AM,43.9,40.3,87,30.38,10.0,Calm,Calm,-,N/A,,Overcast,0,2013-01-05 17:35:00
11:55 AM,44.1,40.1,86,30.38,10.0,SW,4.6,-,N/A,,Overcast,230,2013-01-05 17:55:00
12:15 PM,44.1,40.3,87,30.36,10.0,SW,3.5,-,N/A,,Overcast,230,2013-01-05 18:15:00
12:35 PM,44.1,40.1,86,30.35,10.0,Calm,Calm,-,N/A,,Overcast,0,2013-01-05 18:35:00
12:55 PM,43.7,40.5,88,30.33,10.0,South,3.5,-,N/A,,Overcast,190,2013-01-05 18:55:00
1:35 PM,44.6,40.3,85,30.31,10.0,Calm,Calm,-,N/A,,Overcast,0,2013-01-05 19:35:00
1:55 PM,44.8,40.3,84,30.30,10.0,Calm,Calm,-,N/A,,Overcast,0,2013-01-05 19:55:00
2:15 PM,44.6,40.1,84,30.29,10.0,SSW,4.6,-,N/A,,Overcast,200,2013-01-05 20:15:00
2:55 PM,44.8,40.5,85,30.29,10.0,Calm,Calm,-,N/A,,Overcast,0,2013-01-05 20:55:00
3:15 PM,44.8,40.3,84,30.29,10.0,SSE,3.5,-,N/A,,Overcast,150,2013-01-05 21:15:00
3:35 PM,44.6,40.8,87,30.30,10.0,SSE,4.6,-,N/A,,Overcast,160,2013-01-05 21:35:00
4:15 PM,45.0,41.0,86,30.29,10.0,Calm,Calm,-,N/A,,Overcast,0,2013-01-05 22:15:00
4:55 PM,45.0,40.8,85,30.31,10.0,Calm,Calm,-,N/A,,Overcast,0,2013-01-05 22:55:00
5:15 PM,45.0,40.8,85,30.31,10.0,Calm,Calm,-,N/A,,Overcast,0,2013-01-05 23:15:00
5:35 PM,44.8,41.0,87,30.31,10.0,Calm,Calm,-,N/A,,Overcast,0,2013-01-05 23:35:00
6:15 PM,44.6,41.0,87,30.31,10.0,Calm,Calm,-,N/A,,Overcast,0,2013-01-06 00:15:00
6:55 PM,44.6,40.8,87,30.32,10.0,Calm,Calm,-,N/A,,Overcast,0,2013-01-06 00:55:00
7:15 PM,44.6,40.1,84,30.31,10.0,Calm,Calm,-,N/A,,Overcast,0,2013-01-06 01:15:00
7:55 PM,44.1,39.7,85,30.31,10.0,Calm,Calm,-,N/A,,Overcast,0,2013-01-06 01:55:00
8:15 PM,41.9,39.0,90,30.30,10.0,Calm,Calm,-,N/A,,Mostly Cloudy,0,2013-01-06 02:15:00
8:35 PM,41.2,38.7,91,30.29,10.0,SSE,3.5,-,N/A,,Mostly Cloudy,160,2013-01-06 02:35:00
8:55 PM,41.2,39.2,93,30.29,10.0,Calm,Calm,-,N/A,,Scattered Clouds,0,2013-01-06 02:55:00
9:15 PM,39.6,37.6,93,30.30,7.0,Calm,Calm,-,N/A,,Scattered Clouds,0,2013-01-06 03:15:00
9:35 PM,39.0,37.4,94,30.30,4.0,Calm,Calm,-,N/A,,Mostly Cloudy,0,2013-01-06 03:35:00
9:55 PM,38.5,36.9,94,30.31,4.0,Calm,Calm,-,N/A,,Scattered Clouds,0,2013-01-06 03:55:00
10:15 PM,37.6,36.1,95,30.31,2.5,Calm,Calm,-,N/A,,Scattered Clouds,0,2013-01-06 04:15:00
10:35 PM,37.0,35.6,95,30.31,3.0,Calm,Calm,-,N/A,,Scattered Clouds,0,2013-01-06 04:35:00
10:55 PM,35.8,34.3,94,30.30,2.5,Calm,Calm,-,N/A,,Clear,0,2013-01-06 04:55:00
11:15 PM,34.5,33.4,96,30.30,3.0,North,3.5,-,N/A,,Clear,350,2013-01-06 05:15:00
11:35 PM,34.9,33.8,96,30.31,2.0,Calm,Calm,-,N/A,,Scattered Clouds,0,2013-01-06 05:35:00
11:55 PM,33.4,32.2,95,30.30,5.0,NNW,3.5,-,N/A,,Clear,340,2013-01-06 05:55:00